TimeCDT,TemperatureF,Dew PointF,Humidity,Sea Level PressureIn,VisibilityMPH,Wind Direction,Wind SpeedMPH,Gust SpeedMPH,PrecipitationIn,Events,Conditions,WindDirDegrees,DateUTC
12:52 AM,39.9,34.0,79,30.35,10.0,Variable,3.5,-,N/A,,Clear,0,2012-10-06 05:52:00
1:52 AM,41.0,33.1,73,30.35,10.0,Calm,Calm,-,N/A,,Clear,0,2012-10-06 06:52:00
2:52 AM,41.0,34.0,76,30.35,10.0,Calm,Calm,-,N/A,,Partly Cloudy,0,2012-10-06 07:52:00
3:52 AM,42.1,32.0,67,30.33,10.0,Calm,Calm,-,N/A,,Clear,0,2012-10-06 08:52:00
4:52 AM,42.8,33.8,70,30.30,10.0,NE,3.5,-,N/A,,Clear,40,2012-10-06 09:52:00
5:52 AM,42.1,34.0,73,30.33,10.0,Calm,Calm,-,N/A,,Clear,0,2012-10-06 10:52:00
6:52 AM,42.1,32.0,67,30.34,10.0,Calm,Calm,-,N/A,,Clear,0,2012-10-06 11:52:00
7:52 AM,42.1,30.0,62,30.37,10.0,North,3.5,-,N/A,,Clear,10,2012-10-06 12:52:00
8:52 AM,43.0,28.0,56,30.38,10.0,NNE,5.8,-,N/A,,Overcast,30,2012-10-06 13:52:00
9:52 AM,44.1,27.0,51,30.41,10.0,NE,6.9,-,N/A,,Overcast,40,2012-10-06 14:52:00
10:52 AM,45.0,25.0,46,30.43,10.0,North,8.1,-,N/A,,Overcast,360,2012-10-06 15:52:00
11:52 AM,45.0,24.1,44,30.41,10.0,NNE,8.1,-,N/A,,Overcast,20,2012-10-06 16:52:00
12:52 PM,46.0,24.1,42,30.40,10.0,NNE,10.4,-,N/A,,Overcast,20,2012-10-06 17:52:00
1:52 PM,46.9,25.0,42,30.38,10.0,North,5.8,-,N/A,,Overcast,10,2012-10-06 18:52:00
2:52 PM,46.4,23.0,40,30.34,10.0,Variable,4.6,-,N/A,,Overcast,0,2012-10-06 19:52:00
3:52 PM,48.0,21.9,36,30.35,10.0,NW,4.6,-,N/A,,Mostly Cloudy,320,2012-10-06 20:52:00
4:52 PM,48.0,23.0,37,30.34,10.0,NNW,3.5,-,N/A,,Overcast,340,2012-10-06 21:52:00
5:52 PM,48.0,24.1,39,30.34,10.0,Calm,Calm,-,N/A,,Overcast,0,2012-10-06 22:52:00
6:52 PM,46.0,27.0,47,30.34,10.0,Calm,Calm,-,N/A,,Overcast,0,2012-10-06 23:52:00
7:52 PM,46.0,24.1,42,30.35,10.0,Calm,Calm,-,N/A,,Overcast,0,2012-10-07 00:52:00
8:52 PM,45.0,23.0,42,30.36,10.0,Calm,Calm,-,N/A,,Overcast,0,2012-10-07 01:52:00
9:52 PM,43.0,26.1,51,30.36,10.0,Calm,Calm,-,N/A,,Overcast,0,2012-10-07 02:52:00
10:52 PM,42.1,24.1,49,30.37,10.0,Calm,Calm,-,N/A,,Scattered Clouds,0,2012-10-07 03:52:00
11:52 PM,41.0,23.0,49,30.37,10.0,Variable,4.6,-,N/A,,Overcast,0,2012-10-07 04:52:00